Regional Weather Roundup
Issued by NWS Charleston, SC

Current Version | Previous Version | Graphics & Text | Print | Product List | Glossary On
Versions: 1 2 3 4 5 6 7 8 9 10 11 12 13 14 15 16 17 18 19 20 21 22 23 24 25 26 27 28 29 30 31 32 33 34 35 36 37 38 39 40 41 42 43 44 45 46 47 48 49 50
000
ASUS42 KCHS 272213
RWRCHS

REGIONAL WEATHER ROUNDUP
NATIONAL WEATHER SERVICE CHARLESTON SC
600 PM EDT SAT AUG 27 2016

NOTE: "FAIR" INDICATES FEW OR NO CLOUDS BELOW 12,000 FEET WITH NO
SIGNIFICANT WEATHER AND/OR OBSTRUCTIONS TO VISIBILITY.

NOT ALL STATIONS ARE QUALITY CONTROLLED. USE DATA WITH CAUTION...
ESPECIALLY DEWPOINT OBSERVATIONS.

SCZ027-030-031-034>040-042>050-272300-
...SOUTHEAST SOUTH CAROLINA...

CITY           SKY/WX    TMP DP  RH WIND       PRES   REMARKS
N CHARLESTON   MOSUNNY   88  68  51 E9        30.04F HX  91
WATERFRONT PRK   N/A     86  75  69 E8        30.03F HX  95
MOUNT PLEASANT FAIR      86  73  66 E6        30.04F HX  93
JOHNS ISLAND   FAIR      86  73  66 E12G18    30.04F HX  93
PINOPOLIS        N/A     90  72  55 VRB3      29.96F HX  96
MONCKS CORNER  FAIR      88  66  48 SE6       30.03F HX  90
SUMMERVILLE    NOT AVBL
BEAUFORT MCAS  SUNNY     87  75  67 SE10G16   30.03F HX  96
BEAUFORT ARPT  FAIR      84  73  70 E9        30.03F HX  91
HILTON HEAD IS NOT AVBL
WALTERBORO     CLEAR     91  64  40 SE7       30.04S HX  93
ALLENDALE      FAIR      93  66  40 SE8G17    30.01F HX  96

...SOUTHERN MIDLANDS AND PEE DEE...

CITY           SKY/WX    TMP DP  RH WIND       PRES   REMARKS
GEORGETOWN     FAIR      84  70  61 E8        30.06F
KINGSTREE      FAIR      90  68  48 SE10G17   30.03F HX  93
ORANGEBURG     SUNNY     93  67  42 E9        30.03F HX  96
BARNWELL       NOT AVBL
AIKEN          FAIR      91  68  46 E8        30.07F HX  95
MANNING        FAIR      90  70  51 SE6       30.03F HX  95
COLUMBIA       MOSUNNY   95  70  44 SE8       30.01F HX 101
SUMTER         MOSUNNY   93  70  46 SE9       30.00F HX  99
FLORENCE       MOSUNNY   93  71  48 S14       30.02F HX 100
MYRTLE BEACH   NOT AVBL
N MYRTLE BEACH SUNNY     85  75  72 SE9       30.05F HX  93

$$

GAZ063-065-086>088-099>101-113>116-118-119-134>141-150-272300-
...SOUTHEAST GEORGIA...

CITY           SKY/WX    TMP DP  RH WIND       PRES   REMARKS
SAVANNAH ARPT  MOSUNNY   89  71  55 E14G23    30.02F HX  95
HUNTER AAF     MOSUNNY   87  78  76 E10       30.00F HX 100
FORT STEWART   MOSUNNY   89  72  57 E14       29.99F HX  95
STATESBORO     SUNNY     93  67  42 SE8       30.02S HX  96
SYLVANIA       NOT AVBL
CLAXTON        MOCLDY    90  69  48 NE9       30.02S HX  94

...CSRA...CENTRAL AND FAR SOUTHEAST GEORGIA...

CITY           SKY/WX    TMP DP  RH WIND       PRES   REMARKS
THOMSON        SUNNY     96  70  42 MISG      30.07S HX 102
AUGUSTA-BUSH   SUNNY     95  66  38 E9        30.00F HX  98
AUGUSTA-DANIEL SUNNY     95  67  39 E12       30.03F HX  99
SWAINSBORO     FAIR      95  59  30 E9        30.02F HX  94
VIDALIA        MOSUNNY   93  72  49 E10       30.01F HX 100
EASTMAN        FAIR      96  34  11 SE9G18    30.02S HX  91
HAZLEHURST     FAIR      94  69  43 E9G16     29.99S HX  99
ALMA           MOSUNNY   89  71  55 E8G20     29.99F HX  95
WAYCROSS         N/A     91  77  64 E14       30.00S HX 104
JESUP          FAIR      88  77  70 E14       30.01S HX 100
BAXLEY         FAIR      91  75  59 E9G16     29.99F HX 102
BRUNSWICK      MOSUNNY   86  79  79 E12G17    30.01F HX  99
SAINT SIMONS   SUNNY     85  75  72 E10       30.01S HX  93

$$

SCZ027-028-034-036>038-045-046-048>050-GAZ119-141-272300-
...LAKE AND SUPPLEMENTAL COASTAL OBSERVATIONS...

STATION/POSITION TIME  TEMP    WIND        PRES    WAVE   SWELL
                       AIR SEA DIR/SP/G            HT/PER HT/PER/DIR
                 (UTC) (F)     (DEG/KT/KT) (MB)    (FT/S) (FT/S/D)
WINYAH BAY       2045   83     100/  9     1017.0
LAKE MURRAY      2100   92     100/  8/ 11 1016.3F
ACE BASIN NERRS  NOT AVBL
FORT PULASKI     2100   84 86   60/ 16/ 20 1017.6F
SAPELO ISLAND    2100   87      60/ 12     1016.0F

$$

ANZ835-935-AMZ111-154-330-350-352-354-370-450-454-472-272300-
...C-MAN AND BUOY OBSERVATIONS...

STATION/POSITION TIME  TEMP    WIND        PRES    WAVE   SWELL
                       AIR SEA DIR/SP/G            HT/PER HT/PER/DIR
                 (UTC) (F)     (DEG/KT/KT) (MB)    (FT/S) (FT/S/D)
BUOY 41004       2150   84 85   70/ 12/ 14 1016.5F   5/10   3/130/10
BUOY 41008       2150   84 85   80/ 16/ 17 1015.8F   5/ 7   3/120/ 7
FOLLY BEACH CMAN 2200   83      70/ 11/ 13 1017.6F
CAPERS NEARSHORE 2108   83 85   80/ 12/ 16 1017.7F
FRIPP NEARSHORE  2108   84 86   80/ 16/ 17 1016.4F


STATION/POSITION TIME  TEMP    WIND        PRES    WAVE   SWELL
                       AIR SEA DIR/SP/G            HT/PER HT/PER/DIR
                 (UTC) (F)     (DEG/KT/KT) (MB)    (FT/S) (FT/S/D)
5E ST. MARYS GA  2101      84                N/A     5/10   2/110/11
FRYING PAN BUOY  2100   83 85   60/ 10/ 12 1017.6F
BUOY 41025       2150   83 85   50/  8/ 10 1018.1F   3/ 9   3/120/ 9
CAPE LOOKOUT NC  2200   83      90/  9/ 10 1017.6F
BUOY 41002       2150   83 84   60/ 16/ 17 1015.9F   4/ 9   3/110/ 9
BUOY 41010       NOT AVBL
ST AUGUSTINE FL  2200   83 85   70/  9/  9 1015.7S


$$




USA.gov is the U.S. government's official web portal to all federal, state and local government web resources and services.